Lid_Strength_Index
2 6 9 9 13 14 16 13 10 11 9 8 8 7 7 7 8 11 2 1 1 1 -0 -0 -1 -1 -1 -1 -1 -1 -1 -1 -1 -1 -1 -1 -1 -1 -1 -1 -1 -1 -1 -1 -2 -1 -1 -1 -1
4 7 10 12 15 18 16 12 11 10 8 7 8 6 7 8 5 5 4 1 0 0 -0 -0 -1 -1 -1 -1 -1 -1 -1 -1 -1 -1 -1 -1 -1 -1 -1 -1 -1 -1 -1 -1 -1 -1 -1 -1 -1
4 8 13 14 17 17 16 11 11 9 8 8 8 5 6 7 4 4 2 1 0 0 -0 -0 -1 -1 -1 -1 -1 -1 -1 -1 -1 -1 -1 -1 -1 -1 -1 -1 -2 -2 -2 -2 -1 -1 -1 -1 -1
8 10 12 16 17 15 13 11 10 10 8 7 5 7 5 3 4 2 1 1 1 1 -0 -0 -1 -1 -1 -1 -1 -1 -1 -1 -1 -1 -1 -1 -1 -1 -1 -1 -2 -2 -2 -2 -2 -2 -1 -1 -2
9 11 15 17 16 14 12 10 10 10 10 9 6 8 7 4 2 1 1 1 1 1 -0 -0 -1 -1 -1 -1 -1 -1 -1 -1 -1 -1 -1 -1 -1 -1 -1 -2 -2 -2 -2 -2 -2 -2 -2 -3 -3
11 12 16 16 15 12 12 10 11 10 9 9 7 7 7 3 3 2 1 1 0 1 0 -0 -1 -1 -1 -1 -1 -1 -1 -1 -1 -1 -1 -1 -1 -1 -1 -2 -2 -2 -2 -2 -2 -2 -3 -3 -3
13 14 16 16 13 12 12 9 11 10 10 8 5 8 6 4 2 1 1 1 0 0 0 0 -0 -0 -1 -1 -1 -1 -1 -1 -1 -1 -1 -1 -1 -1 -1 -2 -2 -2 -2 -2 -2 -2 -3 -3 -3
12 14 16 15 13 12 10 9 10 10 9 5 4 8 8 4 2 1 1 1 1 1 0 0 0 0 0 -0 -1 -1 -1 -1 -1 -1 -1 -1 -1 -1 -1 -1 -1 -2 -2 -2 -2 -2 -2 -2 -2
11 16 17 16 13 12 9 11 8 8 8 5 4 5 4 3 2 2 3 2 2 1 1 0 0 -0 -0 -0 -0 -1 -1 -1 -1 -1 -1 -1 0 0 -0 -1 -1 -1 -2 -2 -2 -2 -2 -2 -2
14 17 16 13 12 12 9 10 10 10 10 7 5 4 3 3 3 4 4 4 3 2 1 1 0 0 -0 -0 -0 -0 -0 -0 -0 -0 -0 0 1 1 -0 -1 -1 -1 -1 -2 -2 -2 -2 -2 0
14 16 14 12 10 10 9 10 10 11 11 9 7 5 4 4 4 4 4 3 3 2 1 1 0 0 0 0 -0 -0 -0 -0 -0 0 -0 0 0 0 0 1 0 1 -1 0 -0 -0 0 0 0
16 14 12 12 9 9 9 8 10 10 10 8 6 4 4 4 4 4 4 3 3 2 2 1 0 0 0 0 0 0 0 -0 -0 -0 0 0 1 0 0 0 0 0 0 0 0 0 0 0 0
15 13 11 9 9 9 8 9 10 11 9 8 4 4 4 4 4 3 3 3 2 3 2 1 1 1 0 1 0 0 0 0 -0 -0 -0 -0 1 1 0 0 1 0 1 0 0 1 0 0 0
10 10 9 9 9 9 9 9 10 10 8 8 8 8 5 4 4 4 3 3 3 2 2 1 1 1 0 1 0 0 0 -0 -0 -0 -0 -0 1 1 1 1 0 0 0 0 0 0 1 1 1
8 11 9 9 9 9 9 10 11 9 9 9 9 9 8 7 4 6 4 3 2 2 2 2 1 1 1 1 0 0 0 0 0 0 0 0 1 2 2 2 1 0 1 1 0 0 2 2 1
11 12 14 9 9 8 8 12 10 9 10 9 9 9 9 8 8 8 6 4 3 2 2 2 2 1 1 1 1 1 1 1 1 1 1 1 0 1 3 2 1 0 1 1 1 1 2 2 2
13 14 14 12 9 9 10 11 10 9 9 9 9 9 9 8 9 8 7 6 7 5 2 2 2 2 2 2 1 2 2 1 1 2 2 1 1 1 2 2 1 0 1 1 1 1 2 2 2
14 14 13 13 10 11 11 12 9 10 10 10 10 10 10 9 8 7 7 6 3 2 2 2 2 2 3 2 1 1 2 2 2 2 1 1 0 0 1 1 2 1 1 1 2 1 2 2 2
11 12 13 11 9 11 12 12 10 9 11 11 11 11 10 10 8 7 7 4 2 3 2 2 3 2 2 1 2 2 2 1 2 2 2 1 1 1 1 1 1 1 2 2 2 2 2 2 3
10 12 12 11 9 11 11 11 10 10 10 10 10 10 10 10 9 7 6 3 3 3 2 2 3 2 1 1 1 1 1 1 1 1 1 1 2 1 2 2 3 2 2 3 3 3 3 3 3
11 12 12 12 10 11 12 13 12 10 10 9 9 8 8 8 7 7 5 3 6 6 5 3 2 2 1 2 2 3 2 3 3 3 2 1 1 0 0 0 1 1 3 2 2 2 3 3 2
13 10 10 11 13 16 13 17 14 12 11 10 9 10 9 8 7 7 5 5 6 6 7 6 4 4 3 3 4 5 5 5 4 3 2 3 1 0 0 0 0 1 1 2 1 1 2 2 3
11 9 10 11 14 15 15 17 15 12 12 11 10 9 9 8 8 7 6 4 6 6 7 6 5 5 5 5 5 6 5 4 3 2 3 2 1 1 0 0 0 1 1 1 1 1 2 1 2
9 11 13 14 15 18 16 16 15 13 12 11 10 8 8 8 8 7 6 5 5 4 3 4 5 5 4 4 3 3 3 3 3 3 3 3 2 2 1 0 1 1 1 1 1 1 2 4 4
12 15 18 19 19 18 14 15 15 12 10 9 9 9 8 9 9 7 5 4 4 4 5 5 4 4 3 3 3 2 2 2 3 3 3 3 3 3 2 1 1 1 1 1 1 2 3 4 4
13 14 18 20 20 18 13 16 14 9 8 8 8 9 8 9 8 7 5 5 5 6 6 5 4 4 4 4 3 3 3 3 3 3 3 3 3 3 1 1 1 1 1 0 1 2 3 3 4
11 14 13 16 16 18 16 13 11 9 8 8 9 8 9 9 9 8 9 8 7 7 6 6 5 5 5 5 4 3 3 3 3 3 3 3 3 1 2 2 2 2 1 1 1 1 1 1 2
10 9 15 15 20 21 17 16 15 13 11 9 10 10 10 9 9 9 8 7 7 6 5 5 5 5 4 4 4 3 3 3 3 3 3 3 3 2 3 3 3 3 3 2 2 2 1 1 1
12 13 13 13 15 20 21 17 11 11 10 10 9 9 9 10 10 10 8 7 6 6 6 5 5 5 5 4 5 5 5 3 3 3 3 3 3 3 3 3 3 2 3 3 3 3 2 2 2
11 13 13 17 18 16 17 17 9 9 9 8 8 8 8 9 9 8 8 8 7 6 6 5 5 6 5 5 5 6 5 4 4 4 4 4 3 3 3 3 3 3 3 3 3 2 1 2 2